Location: *
(43.7000°S, 168.7000°W)
Time: 15:03:27
(UTC+00:00)

SMAP - Pass Details

Date: 07 July 2020
Orbit: 681 x 683 km, 98.1° (Epoch: 04 August)

Event Time Altitude Azimuth Distance (km) Brightness Sun altitude
Rises 17:34:46 0° 342° (NNW) 3,039 6.4 -12.8°
Reaches altitude 10° 17:37:22 10° 328° (NNW) 2,133 5.5 -12.3°
Maximum altitude 17:41:09 24° 274° (W) 1,411 4.2 -11.7°
Enters shadow 17:44:37 12° 223° (SW) 2,039 5.0 -11.1°
